STARLINK-2213, 47780

Orbit data source: Space-Track

STARLINK-2213, 47780 is a payload satellite owned by SpaceX/Seattle (US) in LEO that was launched on Thu, 04 Mar 2021 UTC via an FALCON 9 launch vehicle from the Air Force Eastern Test Range (AFETR). Payload-class satellites include a variety of spacecraft equipped with specific instruments for various scientific and technological missions. These include communications satellites like Starlink; space stations such as the ISS; scientific satellites like the Hubble; Earth observation satellites from companies like Planet Labs, Umbra, and HawkEye 360; GPS; miniature CubeSats for education and research; and military/defense satellites.

Loading next visibility...
Identifier
47780, 2021-017BL
Orbit
LEO
Country
Flag of USUS
Related business
Manufacturer
SpaceX/Seattle
Mission
Operational Commercial Communications
Bus & Motor
STARLINK, Unknown motor
Mass
260 kg wet, ~248 kg dry
Launch date (UTC)
2021-03-04 (5 years ago)
Launch vehicle
FALCON 9
Launch site
Air Force Eastern Test Range (AFETR)
Object type
Payload
Rocket body
Debris
Shape & HBR
Box + 1 Pan, 10.1 m
Radar Cross Section
13.562 m², Large (>1 m²)

Expand to show TLE details & history
Last TLE update: 21 hours ago

TLE from 21 hours ago
0 STARLINK-2213
1 47780U 21017BL  25348.92420007  .00004641  00000-0  33034-3 0  9994
2 47780  53.0534 232.1459 0001303  81.4588 278.6549 15.06391172265004
Epoch: 2025-12-14T22:10Z
TLE epoch observation values (Epoch: 2025-12-14T22:10:50.886Z)
Latitude
0.00003°
Longitude
175.60376°
Altitude
547.982 km
Speed
7.589 km/s
True Right ascension
15h 28m 35s
True Declination
0° 00' 00"
Sunlit
Object was in daylight at epoch
Visualization orbit readout
Latitude
Unknown
Longitude
Unknown
Altitude
Unknown
Speed
Unknown
Apparent Right ascension
Unknown
Apparent Declination
Unknown
Sunlit
N/A
Visualization observer readout
Local Sidereal Time
18:10:27
Azimuth
Unknown
Elevation
Unknown
Doppler factor
Unknown
Orbital elements
Apogee altitude
548.412 km
Perigee altitude
546.607 km
Semi-major axis
6,925.647 km
Eccentricity
0.00013
Inclination
53.0534°
RAAN
232.1459°
Arg. of periapsis
81.4588°
True anomaly
278.64014°
Mean anomaly
278.6549°
Eccentric anomaly
278.64752°
Mean motion
3.76576 °/min
Orbital period
95.6 mins
BSTAR
0.00033034
Loading maneuver chart data...
Computing Atmospheric mass density...
Loading historical data...
Loading historical data...
Loading historical data...
Loading historical data...
Loading historical data...
Loading historical data...
Loading historical data...

Documentation

Showing up to 5 results
|